Orbital Elements at Epoch 2459200.5 (2020-Dec-17.0) TDB
Reference: JPL 19 (heliocentric ecliptic J2000)
Element | Value | Uncertainty (1-sigma) | Units |
e | .2864516314714826 | 3.8333e-08 | |
a | 2.684895305677799 | 1.1026e-08 | au |
q | 1.915802665036269 | 1.0038e-07 | au |
i | 8.099103709914075 | 7.6076e-06 | deg |
node | 8.190909604007375 | 3.052e-05 | deg |
peri | 78.82203821570066 | 3.409e-05 | deg |
M | 101.6135815384228 | 1.2419e-05 | deg |
tp | 2458746.935851898462 (2019-Sep-20.43585190) | 5.483e-05 | TDB |
period | 1606.902255037748 4.40 | 9.8982e-06 2.71e-08 | d yr |
n | .2240335396078856 | 1.38e-09 | deg/d |
Q | 3.45398794631933 | 1.4184e-08 | au |
|
| | Orbit Determination Parameters
Additional Information
|